Hourly Data Report for December 21, 2017

VICTORIA UNIVERSITY CS
BRITISH COLUMBIA

48°27'25.200" N
123°18'16.600" W
60.10 m
1018598
71783
WYJ

Download Data

Hourly Data (December 2017)
Hourly Data Report for December 21, 2017
TIME
LST
Temp Definition
°C
Dew Point Definition
°C
Rel Hum Definition
%
Precip. Amount Definition
mm

Wind Dir Definition
10's deg

Wind Spd Definition
km/h
Visibility Definition
km
Stn Press Definition
kPa
Hmdx Definition


Wind Chill Definition


Weather Definition


00:00 -2.0 -3.1 92 0.0 25 2   102.36   -3 LegendNANA
01:00 -1.1 -2.2 92 0.0 30 3   102.39   -2 LegendNANA
02:00 -1.0 -1.9 94 0.0 2 2   102.38   -2 LegendNANA
03:00 -1.8 -2.4 96 0.0 34 3   102.41   -3 LegendNANA
04:00 -1.7 -2.1 97 0.0 34 1   102.37   -2 LegendNANA
05:00 -0.9 -1.3 98 0.0 0 1   102.32   -1 LegendNANA
06:00 0.1 -0.2 98 0.0 29 2   102.32     LegendNANA
07:00 0.7 0.5 98 0.0 30 2   102.28     LegendNANA
08:00 2.0 0.5 90 0.0 15 3   102.23     LegendNANA
09:00 3.0 1.0 87 0.0 10 1   102.24     LegendNANA
10:00 3.3 1.2 86 0.0 15 3   102.24     LegendNANA
11:00 3.4 1.0 85 0.0 15 3   102.20     LegendNANA
12:00 3.6 0.6 81 0.0 14 2   102.12     LegendNANA
13:00 3.6 0.0 77 0.0 13 2   102.09     LegendNANA
14:00 3.6 0.6 81 0.0 14 3   101.98     LegendNANA
15:00 3.8 1.0 82 0.0 13 3   101.93     LegendNANA
16:00 3.8 0.8 81 0.0 13 2   101.87     LegendNANA
17:00 3.8 0.2 77 0.0 9 4   101.84     LegendNANA
18:00 3.7 -0.3 75 0.0 9 3   101.81     LegendNANA
19:00 3.8 0.6 80 0.0 9 4   101.81     LegendNANA
20:00 3.8 1.1 83 0.0 9 4   101.74     LegendNANA
21:00 3.0 1.7 91 0.0 2 3   101.73     LegendNANA
22:00 2.5 1.7 94 0.3 2 2   101.73     LegendNANA
23:00 2.3 1.7 96 0.6 1 4   101.72     LegendNANA

Notes on Data Quality.

Legend

  • E = Estimated
  • M = Missing
  • NA = Not Available*
  • [empty] = Indicates an unobserved value
Date modified: